Regional Weather Roundup
Issued by NWS

Home | Current Version | Previous Version | Text Only | Print | Product List | Glossary On
Versions: 1 2 3 4 5 6 7 8 9 10 11 12 13 14 15 16 17 18 19 20 21 22 23 24 25 26 27 28 29 30 31 32 33 34 35 36 37 38 39 40 41 42 43 44 45 46 47 48 49 50
000
ASCA44 KEWX 130420
RWRMX

LATIN AMERICA AND CARIBBEAN REGIONAL WEATHER ROUNDUP
NATIONAL WEATHER SERVICE AUSTIN/SAN ANTONIO TX
1000 PM CST FRI FEB 12 2016

NOTE: "FAIR" INDICATED FEW OR NO CLOUDS BELOW 12,000 FEET WITH NO
SIGNIFICANT WEATHER AND/OR OBSTRUCTIONS TO VISIBILITY.

BAJA CALIFORNIA

CITY           SKY/WX    TMP DP  RH WIND       PRES   REMARKS
LA PAZ         PTCLDY    64  50  59 NW7       30.01R
MEXICALI       CLEAR     70  28  21 NW5       30.03S
S.J. DEL CABO  PTCLDY    72  39  30 W10       29.98R
TIJUANA        CLEAR     61  50  67 CALM      30.09S

NORTHWESTERN MEXICO

CITY           SKY/WX    TMP DP  RH WIND       PRES   REMARKS
CULIACAN       CLEAR     70  64  83 CALM      29.94R
HERMOSILLO     CLEAR     72  34  25 CALM      29.99
CD. JUAREZ     CLEAR     54  27  35 CALM      30.24S
LOS MOCHIS       N/A    N/A N/A N/A MISG        N/A
OBREGON        CLEAR     64  48  55 CALM      29.92R

NORTHEASTERN MEXICO

CITY           SKY/WX    TMP DP  RH WIND       PRES   REMARKS
CHIHUAHUA      CLEAR     54   7  15 S7        30.30R
MONCLOVA         N/A    N/A N/A N/A MISG        N/A
MONTERREY      CLEAR     66  34  30 E8        30.21R
PIEDRAS NEGRAS   N/A    N/A N/A N/A MISG        N/A
SALTILLO       CLEAR     61  43  51 CALM      30.36R
TORREON        PTCLDY    66  25  20 CALM      30.25R

WESTERN MEXICO

CITY           SKY/WX    TMP DP  RH WIND       PRES   REMARKS
AGUASCALIENTES CLEAR     57  14  18 E15       30.33R
DEL BAJIO      CLEAR     59  27  29 NE14G25   30.36R
GUADALAJARA    CLEAR     54  25  32 CALM      30.20R
MAZATLAN       PTCLDY    70  64  83 CALM      29.91R
P. VALLARTA    CLEAR     73  70  88 CALM      29.93R
ZACATECAS      PTCLDY    55  18  22 E12       30.36S

CENTRAL MEXICO

CITY           SKY/WX    TMP DP  RH WIND       PRES   REMARKS
MEXICO CITY    CLEAR     55  30  38 NW9       30.41R
PUEBLA         CLEAR     48  28  46 N9        30.39R WCI  44
QUERETARO      CLEAR     52  28  40 SE10      30.41R
S. LUIS POTOSI CLEAR     61  25  25 E7        30.38R
TAMPICO        CLEAR     68  59  73 SE12      30.24R
TOLUCA           N/A    N/A N/A N/A MISG        N/A

SOUTHERN MEXICO

CITY           SKY/WX    TMP DP  RH WIND       PRES   REMARKS
ACAPULCO       CLEAR     77  72  83 CALM      29.91R
OAXACA         CLEAR     61  23  23 NW8       30.31R
VERACRUZ       CLEAR     64  57  77 CALM      30.25R
ZIHUATANEJO      N/A    N/A N/A N/A MISG        N/A

YUCATAN PENINSULA

CITY           SKY/WX    TMP DP  RH WIND       PRES   REMARKS
CAMPECHE       CLEAR     68  55  64 NE14      30.17R
CANCUN         CLEAR     63  59  88 NW6       30.19S
CHETUMAL       MOCLDY    73  64  73 CALM      30.17R
COZUMEL        PTCLDY    66  59  77 NE5       30.18S
MERIDA         CLEAR     68  57  68 N9        30.21R
TAPACHULA      CLEAR     79  73  83 CALM      29.95R
TUX. GUTIERREZ CLEAR     64  55  72 NW8       30.14R
VILLAHERMOSA   CLOUDY    72  68  88 NE7       30.20R

CENTRAL AMERICA

CITY           SKY/WX    TMP DP  RH WIND       PRES   REMARKS
MANAGUA        PTCLDY    81  68  65 E12       29.92R

CARIBBEAN

CITY           SKY/WX    TMP DP  RH WIND       PRES   REMARKS
ARUBA          PTCLDY    79  72  78 E24       29.92F
CURACAO        PTCLDY    79  73  83 E17       29.94F
KINGSTON       MOCLDY    77  70  78 N15       30.00S
NASSAU           N/A     59  54  82 CALM      30.21S
SAN JUAN       CLEAR     75  70  83 SE5       30.06F
SANTO DOMINGO  PTCLDY    73  68  83 VRB3      30.03F
ST. CROIX      CLEAR     73  68  83 NE5       30.07F
ST. MAARTEN    PTCLDY    79  68  69 SE12      30.06S
ST. THOMAS     CLEAR     75  68  78 E8        30.06F

$$




USA.gov is the U.S. government's official web portal to all federal, state and local government web resources and services.